Tracking 21094 objects as of 12-Aug-2020
HD Live streaming from Space Station
objects crossing your sky now
Track the most recent launched group of Starlink satellites

GARUDA 1

Track GARUDA 1 now!
GARUDA 1 is classified as:


NORAD ID: 26089
Int'l Code: 2000-011A
Perigee: 35,878.5 km
Apogee: 35,907.2 km
Inclination: 4.4 °
Period: 1,441.2 minutes
Semi major axis: 42263 km
RCS: 16.0243 m2 (large)
Launch date: February 12, 2000
Source: Indonesia (INDO)
Launch site: TYURATAM MISSILE AND SPACE COMPLEX (TTMTR)

L-band; mobile telephone communications.
aabbcc
Your satellite tracking list
Your tracking list is empty




NASA's NSSDC Master Catalog

Two Line Element Set (TLE):
1 26089U 00011A   20225.33035554 -.00000020 +00000-0 +00000-0 0  9999
2 26089 004.3810 090.7050 0003402 016.0421 339.9220 00.99919305020327
Source of the keplerian elements: AFSPC